Location: Gleizolles
(44.4833°N, 6.7667°E)
Time: 15:12:00
(UTC+00:00)

deb Explorer IX - Pass Details

Date: 30 June 2024
Orbit: 510 x 878 km, 38.7° (Epoch: 21 July)

Event Time Altitude Azimuth Distance (km) Brightness Sun altitude
Rises 07:08:34 0° 260° (W) 2,648 ? 32.1°
Reaches altitude 10° 07:10:50 10° 252° (WSW) 1,790 ? 32.5°
Maximum altitude 07:14:36 37° 185° (S) 890 ? 33.2°
Drops below altitude 10° 07:18:43 10° 118° (ESE) 1,950 ? 33.9°
Sets 07:21:16 0° 110° (ESE) 2,922 ? 34.4°
